Windsor Locks, CT

8:57 PM EST on February 20, 2017 (GMT -0500)
Bradley International

Weather History for KBDL - January, 2012

Change the Weather History Date:

Thursday, January 19, 2012

  Actual Average Record
Temperature  
Mean Temperature 21 °F 26 °F  
Max Temperature 30 °F 34 °F 60 °F (1951)
Min Temperature 11 °F 17 °F -16 °F (1948)
Degree Days  
Heating Degree Days 44 39  
Month to date heating degree days 641 738  
Since 1 July heating degree days 2448 2982  
Cooling Degree Days 0 0  
Month to date cooling degree days 0 0  
Year to date cooling degree days 0 0  
Moisture  
Dew Point 16 °F    
Average Humidity 71    
Maximum Humidity 100    
Minimum Humidity 42    
Precipitation  
Precipitation 0.13 in 0.10 in 1.95 in (1936)
Month to date precipitation 1.48 1.96  
Year to date precipitation 1.48 1.96  
Snow  
Snow 1.70 in 0.40 in 7.70 in (1936)
Month to date snowfall 4.0 7.4  
Since 1 July snowfall 16.3 16.8  
Snow Depth -    
Sea Level Pressure  
Sea Level Pressure 30.09 in    
Wind  
Wind Speed 4 mph (SE)    
Max Wind Speed 13 mph    
Max Gust Speed 15 mph    
Visibility 6 miles    
Events Fog , Snow    
T = Trace of Precipitation, MM = Missing Value Source: NWS Daily Summary

Daily Weather History Graph

Daily Weather History Graph

Search for Another Location

Airport or City:

Trip Planner

Search our weather history database for the weather conditions in past years. The results will help you decide how hot, cold, wet, or windy it might be!

Date:

Astronomy

Jan. 19, 2012 Rise Set
Actual Time 7:14 AM EST 4:48 PM EST
Civil Twilight 6:43 AM EST 5:19 PM EST
Nautical Twilight 6:09 AM EST 5:53 PM EST
Astronomical Twilight 5:36 AM EST 6:26 PM EST
Moon 3:48 AM EST (1/19) 1:17 PM EST (1/19)
Length of Visible Light 10h 35m
Length of Day
9h 34m
Waning Crescent, 16% of the Moon is Illuminated
Jan 19
Waning Crescent
Jan 23
New
Jan 30
First Quarter
Feb 7
Full
Feb 14
Last Quarter

Hourly Weather History & Observations

Time (EST) Temp. Windchill Dew Point Humidity Pressure Visibility Wind Dir Wind Speed Gust Speed Precip Events Conditions
12:51 AM 17.1 °F 10.0 °F 5.0 °F 59% 30.19 in 10.0 mi West 4.6 mph - N/A   Partly Cloudy
1:51 AM 16.0 °F 10.4 °F 5.0 °F 62% 30.19 in 10.0 mi WNW 3.5 mph - N/A   Partly Cloudy
2:51 AM 14.0 °F 6.5 °F 5.0 °F 67% 30.22 in 10.0 mi NW 4.6 mph - N/A   Clear
3:51 AM 12.0 °F 4.1 °F 3.9 °F 70% 30.22 in 10.0 mi North 4.6 mph - N/A   Clear
4:51 AM 12.9 °F 6.9 °F 3.9 °F 67% 30.21 in 10.0 mi NNW 3.5 mph - N/A   Clear
5:51 AM 12.0 °F - 3.9 °F 70% 30.23 in 10.0 mi Calm Calm - N/A   Clear
6:51 AM 12.9 °F 6.9 °F 3.9 °F 67% 30.26 in 10.0 mi NNE 3.5 mph - N/A   Scattered Clouds
7:51 AM 10.9 °F - 6.1 °F 81% 30.27 in 10.0 mi Calm Calm - N/A   Scattered Clouds
8:51 AM 16.0 °F 4.4 °F 7.0 °F 68% 30.27 in 10.0 mi North 9.2 mph - N/A   Scattered Clouds
9:51 AM 19.0 °F 11.1 °F 7.0 °F 59% 30.28 in 10.0 mi NNE 5.8 mph - N/A   Mostly Cloudy
10:51 AM 21.0 °F 16.2 °F 5.0 °F 50% 30.25 in 10.0 mi Variable 3.5 mph - N/A   Clear
11:51 AM 24.1 °F - 5.0 °F 44% 30.20 in 10.0 mi Calm Calm - N/A   Mostly Cloudy
12:51 PM 26.1 °F 21.9 °F 7.0 °F 44% 30.17 in 10.0 mi Variable 3.5 mph - N/A   Mostly Cloudy
1:51 PM 28.4 °F 22.2 °F 8.6 °F 43% 30.10 in 10.0 mi SSE 5.8 mph - N/A   Scattered Clouds
2:51 PM 28.9 °F 21.9 °F 9.0 °F 43% 30.11 in 10.0 mi SSE 6.9 mph - N/A   Mostly Cloudy
3:51 PM 28.9 °F 22.8 °F 9.0 °F 43% 30.09 in 10.0 mi South 5.8 mph - N/A   Scattered Clouds
4:51 PM 30.0 °F 23.2 °F 15.1 °F 54% 30.06 in 10.0 mi SSE 6.9 mph - N/A   Mostly Cloudy
5:45 PM 30.2 °F 21.9 °F 17.6 °F 60% 30.06 in 10.0 mi SSE 9.2 mph - N/A   Overcast
5:51 PM 30.0 °F 22.4 °F 18.0 °F 61% 30.07 in 10.0 mi SSE 8.1 mph - N/A   Overcast
6:51 PM 28.0 °F 22.8 °F 23.0 °F 81% 30.05 in 6.0 mi South 4.6 mph - 0.00 in Snow Light Snow
7:21 PM 28.4 °F 23.3 °F 23.0 °F 80% 30.03 in 2.0 mi South 4.6 mph - 0.00 in Snow Light Snow
7:45 PM 26.6 °F 22.6 °F 24.8 °F 93% 30.00 in 1.8 mi ESE 3.5 mph - 0.00 in Snow Light Snow
7:51 PM 27.0 °F - 24.1 °F 89% 30.01 in 1.8 mi Calm Calm - 0.01 in Snow Light Snow
8:02 PM 26.6 °F - 24.8 °F 93% 30.00 in 0.8 mi Calm Calm - 0.00 in Snow Light Snow
8:23 PM 26.6 °F - 24.8 °F 93% 29.99 in 1.0 mi Calm Calm - N/A Snow Light Snow
8:37 PM 26.6 °F 22.6 °F 24.8 °F 93% 29.99 in 0.8 mi ESE 3.5 mph - 0.04 in Snow Light Snow
8:51 PM 27.0 °F - 25.0 °F 92% 29.99 in 0.8 mi Calm Calm - 0.05 in Snow Light Snow
8:55 PM 26.6 °F 22.6 °F 24.8 °F 93% 29.98 in 1.0 mi East 3.5 mph - 0.00 in Snow Light Snow
9:27 PM 26.6 °F 22.6 °F 24.8 °F 93% 29.98 in 0.8 mi West 3.5 mph - N/A Snow Light Snow
9:51 PM 27.0 °F - 26.1 °F 96% 29.99 in 0.5 mi Calm Calm - 0.05 in Fog , Snow Snow
9:57 PM 26.6 °F - 26.6 °F 100% 29.97 in 1.8 mi Calm Calm - N/A Snow Light Snow
10:38 PM 26.6 °F - 26.6 °F 100% 29.96 in 1.2 mi Calm Calm - 0.01 in Snow Light Snow
10:51 PM 27.0 °F - 26.1 °F 96% 29.97 in 1.5 mi Calm Calm - 0.02 in Snow Light Snow
11:05 PM 26.6 °F - 26.6 °F 100% 29.96 in 3.0 mi Calm Calm - 0.00 in Snow Light Snow
11:42 PM 26.6 °F - 26.6 °F 100% 29.94 in 3.0 mi Calm Calm - 0.00 in Snow Light Snow
11:51 PM 28.0 °F - 26.1 °F 92% 29.94 in 3.0 mi Calm Calm - 0.00 in Snow Light Snow